CW3786 Weather Reports


Display with metric or nautical units.
time (UTC)temp
F
wind
direction
speed
MPH
gust
MPH
rain 1hr
in
rain 24hr
in
rain mn
in
humidity
%
barometer
mb
20260507200609 78 123 0.0 5.0 0.00 0.00 0.00 50 1009.5
20260507200212 79 123 1.0 5.0 0.00 0.00 0.00 49 1009.5
20260507195555 80 105 0.0 4.0 0.00 0.00 0.00 49 1009.8
20260507195109 79 132 0.0 5.0 0.00 0.00 0.00 49 1009.8
20260507194603 79 68 0.0 3.0 0.00 0.00 0.00 50 1009.8
20260507194147 79 68 0.0 3.0 0.00 0.00 0.00 50 1009.8
20260507193558 79 69 0.0 1.0 0.00 0.00 0.00 51 1009.8
20260507193112 78 67 0.0 2.0 0.00 0.00 0.00 54 1009.8
20260507192606 78 67 0.0 2.0 0.00 0.00 0.00 53 1010.0
20260507192122 78 79 0.0 5.0 0.00 0.00 0.00 52 1010.0
20260507191554 78 81 2.0 5.0 0.00 0.00 0.00 53 1010.0
20260507191108 78 67 0.0 5.0 0.00 0.00 0.00 51 1010.1
20260507190603 78 65 0.0 6.0 0.00 0.00 0.00 52 1010.1
20260507190118 77 74 2.0 6.0 0.00 0.00 0.00 53 1010.1
20260507185550 77 69 1.0 6.0 0.00 0.00 0.00 53 1010.3
20260507185105 77 69 2.0 6.0 0.00 0.00 0.00 53 1010.3
20260507184559 77 62 1.0 5.0 0.00 0.00 0.00 52 1010.3
20260507184130 76 64 0.0 5.0 0.00 0.00 0.00 54 1010.3
20260507183610 76 79 0.0 7.0 0.00 0.00 0.00 55 1010.3
20260507183050 76 71 0.0 6.0 0.00 0.00 0.00 53 1010.3
20260507182624 76 84 1.0 5.0 0.00 0.00 0.00 55 1010.3
20260507182126 75 82 1.0 6.0 0.00 0.00 0.00 55 1010.3
20260507181600 75 86 3.0 6.0 0.00 0.00 0.00 57 1010.3
20260507181055 75 51 0.0 5.0 0.00 0.00 0.00 57 1010.3
20260507180553 74 51 2.0 5.0 0.00 0.00 0.00 59 1010.3
20260507180051 74 71 0.0 0.0 0.00 0.00 0.00 58 1010.3
20260507175606 73 82 0.0 6.0 0.00 0.00 0.00 57 1010.3
20260507175102 73 81 1.0 6.0 0.00 0.00 0.00 60 1010.3
20260507174558 72 49 0.0 3.0 0.00 0.00 0.00 60 1010.3
20260507174053 72 40 0.0 3.0 0.00 0.00 0.00 61 1010.4
20260507173608 72 17 0.0 3.0 0.00 0.00 0.00 62 1010.4
20260507173103 72 30 0.0 5.0 0.00 0.00 0.00 60 1010.4
20260507172557 72 32 0.0 5.0 0.00 0.00 0.00 62 1010.4
20260507172122 71 49 0.0 2.0 0.00 0.00 0.00 61 1010.4
20260507171559 70 50 0.0 2.0 0.00 0.00 0.00 60 1010.4
20260507171054 70 53 0.0 4.0 0.00 0.00 0.00 62 1010.4
20260507170608 70 53 0.0 4.0 0.00 0.00 0.00 64 1010.4
20260507165558 70 70 0.0 2.0 0.00 0.00 0.00 62 1010.5
20260507165052 69 70 0.0 4.0 0.00 0.00 0.00 64 1010.5
20260507164555 69 69 0.0 4.0 0.00 0.00 0.00 64 1010.5
20260507164146 68 85 0.0 4.0 0.00 0.00 0.00 63 1010.7
20260507163617 69 84 1.0 4.0 0.00 0.00 0.00 63 1010.7
20260507163053 69 85 0.0 6.0 0.00 0.00 0.00 64 1010.7
20260507162651 68 86 1.0 6.0 0.00 0.00 0.00 66 1010.7
20260507162051 68 34 0.0 1.0 0.00 0.00 0.00 66 1010.7
20260507161550 67 34 0.0 2.0 0.00 0.00 0.00 67 1010.7
20260507161105 67 109 0.0 2.0 0.00 0.00 0.00 69 1010.8
20260507160601 66 63 0.0 5.0 0.00 0.00 0.00 68 1010.8
20260507160117 66 64 0.0 5.0 0.00 0.00 0.00 70 1010.8
20260507155551 66 62 0.0 0.0 0.00 0.00 0.00 71 1010.8
20260507155107 65 62 0.0 3.0 0.00 0.00 0.00 73 1010.8
20260507154602 64 62 0.0 3.0 0.00 0.00 0.00 74 1010.8
20260507154118 63 90 0.0 3.0 0.00 0.00 0.00 76 1010.7
20260507153557 63 81 0.0 0.0 0.00 0.00 0.00 77 1010.7
20260507153052 62 81 0.0 3.0 0.00 0.00 0.00 78 1010.7
20260507152717 62 81 0.0 3.0 0.00 0.00 0.00 80 1010.9
20260507152123 61 81 0.0 0.0 0.00 0.00 0.00 82 1010.9
20260507151556 61 81 0.0 0.0 0.00 0.00 0.00 82 1010.9
20260507151052 60 81 0.0 0.0 0.00 0.00 0.00 84 1010.9
20260507150607 60 81 0.0 0.0 0.00 0.00 0.00 85 1010.9
20260507150046 59 81 0.0 1.0 0.00 0.00 0.00 87 1010.9
20260507145619 59 277 0.0 1.0 0.00 0.00 0.00 88 1010.8
20260507145057 58 277 0.0 0.0 0.00 0.00 0.00 89 1010.8
20260507144608 58 277 0.0 0.0 0.00 0.00 0.00 90 1010.8
20260507144110 58 277 0.0 1.0 0.00 0.00 0.00 90 1010.7
20260507143603 57 277 0.0 1.0 0.00 0.00 0.00 91 1010.7
20260507143058 57 277 0.0 0.0 0.00 0.00 0.00 91 1010.7
20260507142554 57 277 0.0 0.0 0.00 0.00 0.00 91 1010.4
20260507142108 56 277 0.0 0.0 0.00 0.00 0.00 91 1010.4
20260507141604 56 277 0.0 0.0 0.00 0.00 0.00 92 1010.4
20260507141058 55 277 0.0 0.0 0.00 0.00 0.00 92 1010.4
20260507140553 55 277 0.0 0.0 0.00 0.00 0.00 91 1010.4
20260507140128 55 277 0.0 0.0 0.00 0.00 0.00 91 1010.4
20260507135603 54 277 0.0 0.0 0.00 0.00 0.00 91 1010.3
20260507135133 54 277 0.0 0.0 0.00 0.00 0.00 91 1010.3
20260507134631 54 277 0.0 0.0 0.00 0.00 0.00 91 1010.3
20260507134121 54 277 0.0 0.0 0.00 0.00 0.00 91 1010.2
20260507133557 54 277 0.0 0.0 0.00 0.00 0.00 91 1010.2
20260507133056 54 277 0.0 0.0 0.00 0.00 0.00 91 1010.2
20260507132552 53 277 0.0 0.0 0.00 0.00 0.00 90 1010.1
20260507132107 53 277 0.0 0.0 0.00 0.00 0.00 90 1010.1
20260507131603 53 277 0.0 0.0 0.00 0.00 0.00 90 1010.1
20260507131059 53 277 0.0 0.0 0.00 0.00 0.00 90 1010.0
20260507130611 53 277 0.0 0.0 0.00 0.00 0.00 90 1010.0
20260507130058 53 277 0.0 0.0 0.00 0.00 0.00 90 1010.0
20260507125721 53 277 0.0 0.0 0.00 0.00 0.00 90 1009.8
20260507125059 53 277 0.0 0.0 0.00 0.00 0.00 90 1009.8
20260507124615 53 277 0.0 0.0 0.00 0.00 0.00 89 1009.8
20260507124109 53 277 0.0 0.0 0.00 0.00 0.00 89 1009.9
20260507123601 54 277 0.0 0.0 0.00 0.00 0.00 89 1009.9
20260507123211 54 277 0.0 0.0 0.00 0.00 0.00 89 1009.9
20260507122615 54 277 0.0 0.0 0.00 0.00 0.00 89 1009.8
20260507122059 54 277 0.0 0.0 0.00 0.00 0.00 89 1009.8
20260507121554 54 277 0.0 0.0 0.00 0.00 0.00 89 1009.8
20260507121128 54 277 0.0 0.0 0.00 0.00 0.00 89 1009.9
20260507120601 54 277 0.0 0.0 0.00 0.00 0.00 89 1009.9
20260507120117 54 277 0.0 0.0 0.00 0.00 0.00 89 1009.9
20260507115610 54 277 0.0 0.0 0.00 0.00 0.00 89 1010.0
20260507115125 54 277 0.0 0.0 0.00 0.00 0.00 89 1010.0
20260507114558 54 277 0.0 0.0 0.00 0.00 0.00 88 1010.0
20260507114112 54 277 0.0 0.0 0.00 0.00 0.00 88 1009.9
20260507113602 54 277 0.0 0.0 0.00 0.00 0.00 88 1009.9
20260507113145 54 277 0.0 0.0 0.00 0.00 0.00 88 1009.9
20260507112610 54 277 0.0 0.0 0.00 0.00 0.00 88 1009.9
20260507112116 54 277 0.0 0.0 0.00 0.00 0.00 88 1009.9
20260507111550 54 277 0.0 0.0 0.00 0.00 0.00 88 1009.9
20260507111125 54 277 0.0 0.0 0.00 0.00 0.00 88 1010.2
20260507110558 54 277 0.0 0.0 0.00 0.00 0.00 88 1010.2
20260507110112 54 277 0.0 0.0 0.00 0.00 0.00 87 1010.2
20260507105600 54 277 0.0 0.0 0.00 0.00 0.00 87 1010.3
20260507105056 54 277 0.0 0.0 0.00 0.00 0.00 87 1010.3
20260507104610 54 277 0.0 0.0 0.00 0.00 0.00 87 1010.3
20260507104207 54 277 0.0 0.0 0.00 0.00 0.00 87 1010.3
20260507103553 54 277 0.0 0.0 0.00 0.00 0.00 87 1010.3
20260507103128 54 277 0.0 0.0 0.00 0.00 0.00 87 1010.3
20260507102623 54 277 0.0 0.0 0.00 0.00 0.00 86 1010.3
20260507102057 54 277 0.0 0.0 0.00 0.00 0.00 86 1010.3
20260507101552 55 277 0.0 0.0 0.00 0.00 0.00 86 1010.3
20260507101051 55 277 0.0 0.0 0.00 0.00 0.00 86 1010.4
20260507100605 55 277 0.0 0.0 0.00 0.00 0.00 86 1010.4
20260507100104 55 277 0.0 0.0 0.00 0.00 0.00 86 1010.4
20260507095557 55 277 0.0 0.0 0.00 0.00 0.00 86 1010.4
20260507095117 55 277 0.0 0.0 0.00 0.00 0.00 86 1010.4
20260507094616 55 277 0.0 0.0 0.00 0.00 0.00 85 1010.4
20260507094110 55 277 0.0 0.0 0.00 0.00 0.00 85 1010.6
20260507093604 55 277 0.0 0.0 0.00 0.00 0.00 85 1010.6
20260507093057 55 277 0.0 0.0 0.00 0.00 0.00 85 1010.6
20260507092551 55 277 0.0 0.0 0.00 0.00 0.00 85 1010.8
20260507092121 55 277 0.0 0.0 0.00 0.00 0.00 85 1010.8
20260507091600 55 277 0.0 0.0 0.00 0.00 0.00 85 1010.8
20260507091055 55 277 0.0 0.0 0.00 0.00 0.00 85 1010.9
20260507090549 55 277 0.0 0.0 0.00 0.00 0.00 85 1010.9
20260507090108 55 277 0.0 0.0 0.00 0.00 0.00 85 1010.9
20260507085602 55 277 0.0 0.0 0.00 0.00 0.00 84 1010.9
20260507085057 55 277 0.0 0.0 0.00 0.00 0.00 84 1010.9
20260507084551 55 277 0.0 0.0 0.00 0.00 0.00 84 1010.9
20260507084106 55 277 0.0 0.0 0.00 0.00 0.00 84 1011.0
20260507083602 56 277 0.0 0.0 0.00 0.00 0.00 83 1011.0
20260507083055 56 277 0.0 0.0 0.00 0.00 0.00 83 1011.0
20260507082553 56 277 0.0 0.0 0.00 0.00 0.00 82 1011.1
20260507082153 56 277 0.0 0.0 0.00 0.00 0.00 82 1011.1
20260507081618 56 277 0.0 0.0 0.00 0.00 0.00 81 1011.1
20260507081118 56 277 0.0 0.0 0.00 0.00 0.00 81 1011.2
20260507080612 57 277 0.0 0.0 0.00 0.00 0.00 81 1011.2
20260507080108 57 277 0.0 0.0 0.00 0.00 0.00 80 1011.2
20260507075607 57 277 0.0 0.0 0.00 0.00 0.00 80 1011.2
20260507075103 57 277 0.0 0.0 0.00 0.00 0.00 80 1011.2
20260507074558 57 277 0.0 0.0 0.00 0.00 0.00 80 1011.2
20260507074053 57 277 0.0 0.0 0.00 0.00 0.00 80 1011.3
20260507073612 58 277 0.0 4.0 0.00 0.00 0.00 80 1011.3
20260507073106 58 277 1.0 4.0 0.00 0.00 0.00 80 1011.3
20260507072619 58 276 0.0 7.0 0.00 0.00 0.00 80 1011.4
20260507072057 58 274 0.0 10.0 0.00 0.00 0.00 80 1011.4
20260507071611 58 251 2.0 10.0 0.00 0.00 0.00 80 1011.4
20260507071117 58 267 0.0 6.0 0.00 0.00 0.00 80 1011.4
20260507070618 58 256 1.0 10.0 0.00 0.00 0.00 81 1011.4
20260507070111 58 258 1.0 10.0 0.00 0.00 0.00 81 1011.4
20260507065603 58 247 2.0 6.0 0.00 0.00 0.00 82 1011.3
20260507065105 58 284 1.0 6.0 0.00 0.00 0.00 83 1011.3
20260507064601 58 237 1.0 6.0 0.00 0.00 0.00 83 1011.3
20260507064055 58 277 0.0 6.0 0.00 0.00 0.00 84 1011.4
20260507063631 58 269 1.0 6.0 0.00 0.00 0.00 84 1011.4
20260507063125 58 283 1.0 7.0 0.00 0.00 0.00 85 1011.4
20260507062638 57 208 0.0 7.0 0.00 0.00 0.00 85 1011.4
20260507062117 57 256 1.0 3.0 0.00 0.00 0.00 86 1011.4
20260507061559 57 255 0.0 2.0 0.00 0.00 0.00 86 1011.4
20260507061102 57 255 0.0 4.0 0.00 0.00 0.00 86 1011.4
20260507060557 57 255 0.0 4.0 0.00 0.00 0.00 87 1011.4
20260507060052 57 235 0.0 4.0 0.00 0.00 0.00 87 1011.4
20260507055607 57 248 0.0 1.0 0.00 0.00 0.00 87 1011.4
20260507055103 57 248 0.0 1.0 0.00 0.00 0.00 86 1011.4
20260507054557 57 272 0.0 4.0 0.00 0.00 0.00 86 1011.4
20260507054056 57 272 1.0 4.0 0.00 0.00 0.00 86 1011.6
20260507053554 57 267 0.0 2.0 0.00 0.00 0.00 85 1011.6
20260507053108 57 267 0.0 2.0 0.00 0.00 0.00 85 1011.6
20260507052556 57 267 0.0 2.0 0.00 0.00 0.00 84 1011.6
20260507052102 57 267 0.0 2.0 0.00 0.00 0.00 84 1011.6
20260507051605 57 267 0.0 2.0 0.00 0.00 0.00 84 1011.6
20260507051101 57 267 0.0 0.0 0.00 0.00 0.00 83 1011.5
20260507050555 57 267 0.0 1.0 0.00 0.00 0.00 81 1011.5
20260507050051 57 267 0.0 1.0 0.00 0.00 0.00 81 1011.5
20260507045603 57 267 0.0 0.0 0.00 0.00 0.00 80 1011.4
20260507045058 58 267 0.0 0.0 0.00 0.00 0.00 80 1011.4
20260507044554 58 267 0.0 0.0 0.00 0.00 0.00 80 1011.4
20260507044049 58 267 0.0 0.0 0.00 0.00 0.00 79 1011.4
20260507043633 58 267 0.0 0.0 0.00 0.00 0.00 79 1011.4
20260507043116 58 267 0.0 0.0 0.00 0.00 0.00 78 1011.4
20260507042609 58 267 0.0 0.0 0.00 0.00 0.00 78 1011.4
20260507042105 58 267 0.0 0.0 0.00 0.00 0.00 77 1011.4
20260507041620 59 267 0.0 0.0 0.00 0.00 0.00 77 1011.4
20260507041054 59 267 0.0 0.0 0.00 0.00 0.00 77 1011.2
20260507040610 59 267 0.0 0.0 0.00 0.00 0.00 77 1011.2
20260507040048 59 267 0.0 1.0 0.00 0.00 0.00 76 1011.2
20260507035607 59 267 0.0 1.0 0.00 0.00 0.00 76 1011.0
20260507035118 59 267 0.0 0.0 0.00 0.00 0.00 76 1011.0
20260507034629 60 267 0.0 2.0 0.00 0.00 0.00 76 1011.0
20260507034144 60 267 0.0 2.0 0.00 0.00 0.00 76 1010.8
20260507033607 60 267 0.0 2.0 0.00 0.00 0.00 76 1010.8
20260507033119 60 254 0.0 4.0 0.00 0.00 0.00 76 1010.8
20260507032559 60 252 1.0 4.0 0.00 0.00 0.00 76 1010.6
20260507032055 60 278 0.0 7.0 0.00 0.00 0.00 76 1010.6
20260507031554 60 273 0.0 9.0 0.00 0.00 0.00 77 1010.6
20260507031109 60 288 1.0 9.0 0.00 0.00 0.00 76 1010.4
20260507030605 60 274 2.0 7.0 0.00 0.00 0.00 76 1010.4
20260507030100 60 229 0.0 10.0 0.00 0.00 0.00 76 1010.4
20260507025552 60 246 3.0 10.0 0.00 0.00 0.00 75 1010.3
20260507025051 61 274 0.0 7.0 0.00 0.00 0.00 74 1010.3
20260507024606 61 292 0.0 7.0 0.00 0.00 0.00 72 1010.3
20260507024059 61 239 0.0 7.0 0.00 0.00 0.00 70 1010.3
20260507023703 61 229 2.0 8.0 0.00 0.00 0.00 69 1010.3
20260507023132 61 196 3.0 10.0 0.00 0.00 0.00 67 1010.3
20260507022625 61 319 2.0 10.0 0.00 0.00 0.00 66 1010.3
20260507022059 61 193 4.0 11.0 0.00 0.00 0.00 67 1010.3
20260507021553 61 259 1.0 11.0 0.00 0.00 0.00 68 1010.3
20260507021052 61 271 3.0 15.0 0.00 0.00 0.00 70 1010.3
20260507020608 62 279 2.0 15.0 0.00 0.00 0.00 70 1010.3
20260507020137 62 273 2.0 12.0 0.00 0.00 0.00 70 1010.3
20260507015608 63 204 3.0 12.0 0.00 0.00 0.00 67 1010.2
20260507015110 63 270 0.0 14.0 0.00 0.00 0.00 65 1010.2
20260507014604 63 272 3.0 14.0 0.00 0.00 0.00 65 1010.2
20260507014103 63 265 2.0 11.0 0.00 0.00 0.00 67 1010.1
20260507013559 64 274 2.0 8.0 0.00 0.00 0.00 66 1010.1
20260507013058 65 268 1.0 7.0 0.00 0.00 0.00 65 1010.1
20260507012554 65 323 3.0 7.0 0.00 0.00 0.00 63 1009.9
20260507012211 65 276 2.0 11.0 0.00 0.00 0.00 61 1009.9
20260507011624 65 250 2.0 11.0 0.00 0.00 0.00 59 1009.9
20260507011059 66 189 1.0 5.0 0.00 0.00 0.00 59 1009.8
20260507010558 66 284 0.0 5.0 0.00 0.00 0.00 62 1009.8
20260507010116 66 270 0.0 5.0 0.00 0.00 0.00 64 1009.8
20260507005608 65 263 1.0 6.0 0.00 0.00 0.00 64 1009.8
20260507005122 65 209 1.0 12.0 0.00 0.00 0.00 64 1009.8
20260507004558 65 276 2.0 12.0 0.00 0.00 0.00 63 1009.8
20260507004057 66 276 2.0 11.0 0.00 0.00 0.00 64 1010.1
20260507003552 66 281 2.0 10.0 0.00 0.00 0.00 67 1010.1
20260507003108 66 263 0.0 10.0 0.00 0.00 0.00 68 1010.1
20260507002603 66 269 2.0 13.0 0.00 0.00 0.00 66 1009.9
20260507002112 66 281 4.0 13.0 0.00 0.00 0.00 64 1009.9
20260507001611 66 194 1.0 9.0 0.00 0.00 0.00 66 1009.9
20260507001055 66 267 2.0 11.0 0.00 0.00 0.00 65 1009.9
20260507000609 66 183 4.0 11.0 0.00 0.00 0.00 65 1009.9
20260507000105 66 313 2.0 9.0 0.00 0.00 0.00 65 1009.9
20260506235559 66 232 2.0 11.0 0.00 0.00 0.00 64 1010.1
20260506235143 67 267 2.0 11.0 0.00 0.00 0.00 64 1010.1
20260506234649 67 214 2.0 11.0 0.00 0.00 0.00 64 1010.1
20260506234105 67 247 2.0 11.0 0.00 0.00 0.00 63 1009.9
20260506233601 68 188 1.0 8.0 0.00 0.00 0.00 62 1009.9
20260506233056 69 211 2.0 7.0 0.00 0.00 0.00 59 1009.9
20260506232627 69 288 2.0 9.0 0.00 0.00 0.00 58 1010.2
20260506232121 69 296 2.0 9.0 0.00 0.00 0.00 59 1010.2
20260506231607 69 282 0.0 10.0 0.00 0.00 0.00 61 1010.2
20260506231102 69 262 4.0 10.0 0.00 0.00 0.00 58 1010.3
20260506230601 69 274 0.0 6.0 0.00 0.00 0.00 59 1010.3
20260506230056 69 200 1.0 6.0 0.00 0.00 0.00 58 1010.3
20260506225552 69 194 1.0 4.0 0.00 0.00 0.00 58 1010.3
20260506225108 69 263 0.0 4.0 0.00 0.00 0.00 59 1010.3
20260506224602 68 185 1.0 4.0 0.00 0.00 0.00 56 1010.3
20260506224058 68 228 0.0 6.0 0.00 0.00 0.00 59 1010.7
20260506223553 68 266 1.0 7.0 0.00 0.00 0.00 58 1010.7
20260506223111 69 246 1.0 7.0 0.00 0.00 0.00 58 1010.7
20260506222606 69 228 1.0 4.0 0.00 0.00 0.00 56 1010.8
20260506222225 69 225 0.0 5.0 0.00 0.00 0.00 56 1010.8
20260506221615 70 234 1.0 5.0 0.00 0.00 0.00 55 1010.8
20260506221053 70 284 2.0 5.0 0.00 0.00 0.00 54 1010.9
20260506220606 69 263 0.0 3.0 0.00 0.00 0.00 52 1010.9
20260506220101 69 271 0.0 3.0 0.00 0.00 0.00 52 1010.9
20260506215558 69 255 0.0 7.0 0.00 0.00 0.00 53 1011.0
20260506215054 69 281 1.0 7.0 0.00 0.00 0.00 51 1011.0
20260506214610 70 259 1.0 3.0 0.00 0.00 0.00 50 1011.0
20260506214105 70 265 1.0 4.0 0.00 0.00 0.00 48 1011.1
20260506213600 71 250 0.0 4.0 0.00 0.00 0.00 51 1011.1
20260506213116 71 254 1.0 6.0 0.00 0.00 0.00 51 1011.1
20260506212631 71 283 1.0 6.0 0.00 0.00 0.00 54 1011.3
20260506212055 71 239 0.0 4.0 0.00 0.00 0.00 54 1011.3
20260506211554 71 182 0.0 4.0 0.00 0.00 0.00 55 1011.3
20260506211052 71 189 0.0 4.0 0.00 0.00 0.00 54 1011.4
20260506210550 71 167 0.0 4.0 0.00 0.00 0.00 54 1011.4
20260506210108 70 287 0.0 4.0 0.00 0.00 0.00 53 1011.4
20260506205557 70 217 0.0 4.0 0.00 0.00 0.00 53 1011.4
20260506205113 69 175 0.0 4.0 0.00 0.00 0.00 50 1011.4
20260506204606 69 180 0.0 4.0 0.00 0.00 0.00 50 1011.4
20260506204102 68 183 0.0 5.0 0.00 0.00 0.00 52 1011.5
20260506203557 68 184 0.0 5.0 0.00 0.00 0.00 50 1011.5
20260506203112 68 169 0.0 5.0 0.00 0.00 0.00 52 1011.5
20260506202620 69 164 0.0 4.0 0.00 0.00 0.00 50 1011.6
20260506202109 69 159 0.0 4.0 0.00 0.00 0.00 51 1011.6
20260506201624 69 170 1.0 4.0 0.00 0.00 0.00 51 1011.6
20260506201058 69 169 0.0 6.0 0.00 0.00 0.00 52 1011.8